TimeCDT,TemperatureF,Dew PointF,Humidity,Sea Level PressureIn,VisibilityMPH,Wind Direction,Wind SpeedMPH,Gust SpeedMPH,PrecipitationIn,Events,Conditions,WindDirDegrees,DateUTC
12:45 AM,77.0,77.0,100,29.86,7.0,NE,5.8,-,N/A,,Overcast,40,2013-09-09 05:45:00
1:44 AM,77.0,77.0,100,29.87,7.0,NNE,5.8,-,N/A,,Overcast,30,2013-09-09 06:44:00
2:43 AM,77.0,77.0,100,29.86,6.0,East,5.8,-,N/A,Rain,Light Rain,90,2013-09-09 07:43:00
3:46 AM,77.0,77.0,100,29.85,6.0,East,5.8,-,N/A,Rain,Light Rain,80,2013-09-09 08:46:00
4:45 AM,77.0,75.2,94,29.85,6.0,Calm,Calm,-,N/A,Rain,Light Rain,0,2013-09-09 09:45:00
5:44 AM,77.0,75.2,94,29.87,6.0,Calm,Calm,-,N/A,,Overcast,0,2013-09-09 10:44:00
6:43 AM,77.0,75.2,94,29.87,6.0,ENE,5.8,-,N/A,,Mostly Cloudy,70,2013-09-09 11:43:00
7:44 AM,80.6,78.8,94,29.88,6.0,ENE,8.1,-,N/A,,Mostly Cloudy,60,2013-09-09 12:44:00
8:45 AM,84.2,77.0,79,29.90,6.0,ESE,6.9,-,N/A,,Mostly Cloudy,110,2013-09-09 13:45:00
9:45 AM,84.2,77.0,79,29.92,6.0,ESE,6.9,-,N/A,,Mostly Cloudy,110,2013-09-09 14:45:00
10:42 AM,86.0,77.0,74,29.92,7.0,ESE,9.2,-,N/A,,Mostly Cloudy,120,2013-09-09 15:42:00
11:40 AM,82.4,77.0,84,29.91,1.0,SE,10.4,-,N/A,Rain,Heavy Rain,130,2013-09-09 16:40:00
11:56 AM,78.8,75.2,89,29.91,6.0,SSW,5.8,-,N/A,,Mostly Cloudy,200,2013-09-09 16:56:00
12:30 PM,78.8,75.2,89,29.90,2.0,South,17.3,-,N/A,Rain,Rain,170,2013-09-09 17:30:00
12:45 PM,77.0,73.4,89,29.90,6.0,South,4.6,-,N/A,,Overcast,190,2013-09-09 17:45:00
1:08 PM,78.8,75.2,89,29.89,6.0,East,5.8,-,N/A,,Overcast,80,2013-09-09 18:08:00
1:52 PM,78.8,75.2,89,29.90,6.0,ESE,10.4,-,N/A,,Overcast,110,2013-09-09 18:52:00
2:45 PM,78.8,75.2,89,29.87,6.0,East,4.6,-,N/A,,Overcast,80,2013-09-09 19:45:00
3:45 PM,78.8,75.2,89,29.87,6.0,East,2.3,-,N/A,,Overcast,80,2013-09-09 20:45:00
4:43 PM,80.6,77.0,89,29.87,6.0,East,3.5,-,N/A,,Overcast,80,2013-09-09 21:43:00
5:40 PM,80.6,77.0,89,29.88,6.0,Calm,Calm,-,N/A,,Overcast,0,2013-09-09 22:40:00
6:46 PM,78.8,77.0,94,29.88,6.0,NW,4.6,-,N/A,,Overcast,310,2013-09-09 23:46:00
7:03 PM,77.0,35.6,22,29.88,5.0,WSW,2.3,-,N/A,Rain,Light Rain,240,2013-09-10 00:03:00
7:41 PM,77.0,77.0,100,29.89,6.0,Calm,Calm,-,N/A,,Overcast,0,2013-09-10 00:41:00
8:48 PM,77.0,77.0,100,29.92,5.0,SE,3.5,-,N/A,Rain,Light Rain,140,2013-09-10 01:48:00
9:45 PM,77.0,75.2,94,29.93,6.0,NW,3.5,-,N/A,,Overcast,320,2013-09-10 02:45:00
10:40 PM,77.0,75.2,94,29.92,6.0,Calm,Calm,-,N/A,,Overcast,0,2013-09-10 03:40:00
11:45 PM,77.0,75.2,94,29.90,6.0,East,3.5,-,N/A,,Mostly Cloudy,90,2013-09-10 04:45:00